User: anonymous   Login
Location: Nelson
(41.2830°S, 173.2830°E)
Time: 18:40:45
(UTC+12:00)
Language:

H-2A R/B - Orbit

View from above orbital plane
View from above orbital plane
View from above satellite
View from above satellite

Ground track
Ground track

The orbit data is extracted from the following two-line orbital elements,

1 27601U 02056E   19110.16585594  .00000027  00000-0  24509-4 0  9997
2 27601  98.2823 161.3920 0073400 100.2793 324.3580 14.31888149853972
Epoch (UTC): 20 April 2019 03:58:49
Eccentricity: 0.0073400
inclination: 98.2823°
perigee height: 733 km
apogee height: 838 km
right ascension of ascending node: 161.3920°
argument of perigee: 100.2793°
revolutions per day: 14.31888149
mean anomaly at epoch: 324.3580°
orbit number at epoch: 85397

The dashed part of the orbit path shows where the satellite is in the earth's shadow,  

DLR